Location: Carnoy
(49.9849°N, 2.7558°E)
Time: 13:11:54
(UTC+00:00)

Cosmos 2251 Rocket - Pass Details

Date: 24 January 2020
Orbit: 765 x 792 km, 74.0° (Epoch: 16 February)

Event Time Altitude Azimuth Distance (km) Brightness Sun altitude
Rises 17:41:18 0° 338° (NNW) 3,261 6.8 -11.5°
Reaches altitude 10° 17:43:45 10° 343° (NNW) 2,334 6.0 -11.9°
Maximum altitude 17:48:56 53° 61° (ENE) 957 3.6 -12.7°
Drops below altitude 10° 17:54:08 10° 138° (SE) 2,337 5.7 -13.5°
Sets 17:56:34 0° 143° (SE) 3,265 6.5 -13.9°
